Location: Ackerson Creek
(37.8210°N, 119.8757°W)
Time: 15:44:21
(UTC+00:00)

Cosmos 1461 - Pass Details

Date: 13 April 2024
Orbit: 499 x 586 km, 65.0° (Epoch: 22 May)

Event Time Altitude Azimuth Distance (km) Brightness Sun altitude
Rises 12:18:22 0° 321° (NW) 2,604 6.1 -13.6°
Reaches altitude 10° 12:20:38 10° 313° (NW) 1,709 5.1 -13.2°
Maximum altitude 12:24:08 36° 245° (WSW) 802 3.1 -12.5°
Drops below altitude 10° 12:27:38 10° 178° (S) 1,695 5.1 -11.9°
Sets 12:29:53 0° 169° (S) 2,578 6.1 -11.5°
